Flag for U.S.A. Weather past 2 weeks in Fayetteville, North Carolina, U.S.A.

Now
77 °F

Sunny.


Feels Like: 78 °F
Forecast: 75 / 94 °F
Wind: 5 mph from Southwest

Location: Fayetteville Regional Airport

Current Time: Sep 2, 2014 at 8:17:58 AM

Latest Report: Sep 2, 2014 at 7:53 AM


Visibility: 7 mi

Pressure: 30.06 "Hg

Humidity: 90%

Dew point: 74 °F

Location of FayettevilleLocation

Historic Weather in Fayetteville — Graph

°F

Fayetteville temperature yesterday

Maximum temperature yesterday: 96 °F (at 2:53 PM)
Minimum temperature yesterday: 74 °F (at 6:53 AM)
Average temperature yesterday: 84 °F

Past Weeks' High & Low Weather Summary

 TemperatureHumidityPressure
High96 °F (Aug 22, 1:53 PM)97% (Aug 20, 3:53 AM)30.21 "Hg (Aug 20, 3:53 AM)
Low62 °F (Aug 25, 5:53 AM)30% (Aug 27, 1:53 PM)29.75 "Hg (Aug 18, 7:53 PM)
Average80 °F72%29.99 "Hg
* Reported Aug 18 6:53 AM — Sep 2 6:53 AM, Fayetteville, Weather by CustomWeather, © 2014

Note: Actual official high and low records may vary slightly from our data, if they occured in-between our weather recording intervals... More about our weather records

Advertising

Fayetteville weather history for previous 24 hours

 ConditionsComfort  
Time TempWeatherWind HumidityBarometerVisibility
6:53 AM
Sep 2
75 °FFog.6 mph94%30.05 "Hg6 mi
5:53 AM75 °FClear.6 mph96%30.04 "Hg8 mi
4:53 AM76 °FClear.6 mph94%30.02 "Hg8 mi
3:53 AM77 °FClear.6 mph90%30.03 "Hg8 mi
2:53 AM78 °FClear.7 mph87%30.03 "Hg10 mi
1:53 AM79 °FClear.8 mph88%30.04 "Hg10 mi
12:53 AM80 °FClear.8 mph81%30.05 "Hg10 mi
11:53 PM
Sep 1
81 °FClear.12 mph79%30.05 "Hg10 mi
10:53 PM82 °FClear.9 mph82%30.05 "Hg10 mi
9:53 PM83 °FClear.8 mph79%30.04 "Hg10 mi
8:53 PM86 °FClear.9 mph70%30.02 "Hg10 mi
7:53 PM88 °FSunny.7 mph61%30.01 "Hg10 mi
6:53 PM91 °FSunny.8 mph56%30.01 "Hg10 mi
5:53 PM92 °FSunny.6 mph51%29.99 "Hg10 mi
4:53 PM95 °FPassing clouds.8 mph44%29.99 "Hg10 mi
3:53 PM95 °FPartly sunny.8 mph43%30.00 "Hg10 mi
2:53 PM96 °FPartly sunny.7 mph40%30.02 "Hg10 mi
1:53 PM93 °FPassing clouds.No wind44%30.04 "Hg10 mi
12:53 PM94 °FSunny.5 mph46%30.06 "Hg10 mi
11:53 AM89 °FSunny.3 mph59%30.08 "Hg10 mi
10:53 AM86 °FSunny.3 mph65%30.09 "Hg10 mi
9:53 AM84 °FSunny.6 mph72%30.09 "Hg10 mi
8:53 AM80 °FSunny.7 mph79%30.09 "Hg10 mi
Weather by CustomWeather, © 2014

See weather overviewHow to use our weather pages